This demonstration page uses our WeatherBlox Daily Observations layout. Learn more.

Left ArrowRight Arrow

40.92945, -100.16068

Hourly Observations for November 13, 2015

Temp ( °F °C ) Dew Point ( °F °C ) Humidity (%) Winds ( mph kmh ) Pressure ( in mb ) Visibility ( mi km ) Precip ( " mm )
12:15 am 00:15 Clear 32 -0.2 28 -2.5 85 85 WNW 5 7 30.36 1028 10 16 N/A
12:35 am 00:35 Clear 30 -1.1 27 -2.8 88 88 WNW 5 7 30.36 1028 10 16 N/A
12:55 am 00:55 Clear 29 -1.7 26 -3.2 90 90 N N/A 30.36 1028 10 16 N/A
1:15 am 01:15 Clear 28 -2.4 25 -3.9 90 90 WNW 3 6 30.36 1028 10 16 N/A
1:35 am 01:35 Clear 28 -2.1 26 -3.5 90 90 NW 3 6 30.36 1028 10 16 N/A
1:55 am 01:55 Clear 27 -3 24 -4.5 90 90 WNW 3 6 30.36 1028 10 16 N/A
2:15 am 02:15 Clear 26 -3.1 24 -4.7 89 89 WNW 5 7 30.36 1028 10 16 N/A
2:35 am 02:35 Clear 26 -3.3 24 -4.6 91 91 W 3 6 30.36 1028 10 16 N/A
2:55 am 02:55 Clear 27 -3 24 -4.5 90 90 W 6 9 30.36 1028 10 16 N/A
3:15 am 03:15 Clear 27 -2.7 24 -4.5 88 88 W 5 7 30.36 1028 10 16 N/A
3:35 am 03:35 Clear 28 -2.5 24 -4.6 86 86 W 5 7 30.36 1028 10 16 N/A
3:55 am 03:55 Clear 26 -3.6 22 -5.4 88 88 N N/A 30.39 1029 10 16 N/A
4:15 am 04:15 Clear 25 -4 22 -5.7 88 88 WNW 5 7 30.36 1028 10 16 N/A
4:35 am 04:35 Clear 26 -3.5 23 -4.9 90 90 WNW 3 6 30.33 1027 10 16 N/A
4:55 am 04:55 Clear 26 -3.5 23 -5 89 89 WNW 5 7 30.33 1027 10 16 N/A
5:15 am 05:15 Clear 26 -3.2 24 -4.6 90 90 W 6 9 30.36 1028 10 16 N/A
5:35 am 05:35 Clear 26 -3.6 23 -5.1 89 89 WSW 3 6 30.36 1028 10 16 N/A
5:55 am 05:55 Clear 25 -3.7 23 -5.1 90 90 N N/A 30.36 1028 10 16 N/A
6:15 am 06:15 Clear 25 -3.7 23 -5 91 91 S 3 6 30.36 1028 10 16 N/A
6:35 am 06:35 Clear 26 -3.6 23 -5 90 90 N N/A 30.36 1028 10 16 N/A
6:55 am 06:55 Clear 26 -3.6 23 -5 90 90 N N/A 30.36 1028 10 16 N/A
7:15 am 07:15 Clear 24 -4.4 22 -5.6 91 91 N N/A 30.36 1028 10 16 N/A
7:35 am 07:35 Sunny 25 -4.1 22 -5.3 91 91 N N/A 30.39 1029 10 16 N/A
7:55 am 07:55 Sunny 25 -4 22 -5.5 89 89 N N/A 30.39 1029 10 16 N/A
8:15 am 08:15 Sunny 27 -3 24 -4.3 91 91 N N/A 30.36 1028 10 16 N/A
8:35 am 08:35 Sunny 29 -1.6 27 -3 90 90 N N/A 30.36 1028 10 16 N/A
8:55 am 08:55 Sunny 32 -0.1 29 -1.8 88 88 N N/A 30.33 1027 10 16 N/A
9:15 am 09:15 Sunny 34 1.3 31 -0.5 88 88 N N/A 30.33 1027 10 16 N/A
9:35 am 09:35 Sunny 36 2.2 31 -0.7 81 81 W 3 6 30.33 1027 10 16 N/A
9:55 am 09:55 Sunny 38 3.2 31 -0.5 77 77 WNW 5 7 30.30 1026 10 16 N/A
10:15 am 10:15 Sunny 41 4.8 32 -0.2 70 70 W 3 6 30.30 1026 10 16 N/A
10:35 am 10:35 Sunny 44 6.4 32 0.1 64 64 W 3 6 30.27 1025 10 16 N/A
10:55 am 10:55 Sunny 46 8 34 1 62 62 N N/A 30.27 1025 10 16 N/A
11:15 am 11:15 Sunny 52 10.9 33 0.4 49 49 SW 9 15 30.21 1023 10 16 N/A
11:35 am 11:35 Sunny 55 12.6 31 -0.8 40 40 SW 10 17 30.18 1022 10 16 N/A
11:55 am 11:55 Sunny 56 13.1 31 -0.7 39 39 SSW 10 17 30.18 1022 10 16 N/A
12:15 pm 12:15 Sunny 56 13.3 30 -1.2 37 37 SSW 14 22 30.15 1021 10 16 N/A
12:35 pm 12:35 Sunny 56 13.5 29 -1.7 35 35 SSW 12 19 30.15 1021 10 16 N/A
12:55 pm 12:55 Sunny 56 13.5 28 -2.1 34 34 SW 12 19 30.15 1021 10 16 N/A
1:15 pm 13:15 Sunny 57 14.1 29 -1.5 34 34 SSW 10 17 30.12 1020 10 16 N/A
1:35 pm 13:35 Sunny 58 14.3 29 -1.9 33 33 SSW 13 20 30.12 1020 10 16 N/A
1:55 pm 13:55 Sunny 58 14.5 28 -2.1 32 32 SSW 12 19 30.06 1018 10 16 N/A
2:15 pm 14:15 Sunny 59 15 29 -1.5 32 32 SSW 9 15 30.06 1018 10 16 N/A
2:35 pm 14:35 Sunny 59 14.9 30 -1.2 33 33 SSW 9 15 30.06 1018 10 16 N/A
2:55 pm 14:55 Sunny 59 15 30 -0.9 34 34 SSW 10 17 30.06 1018 10 16 N/A
6:15 pm 18:15 Clear 44 6.9 31 -0.5 60 60 SSW 3 6 30.15 1021 10 16 N/A
6:35 pm 18:35 Clear 44 6.5 31 -0.5 61 61 S 5 7 30.15 1021 10 16 N/A
6:55 pm 18:55 Clear 43 5.9 31 -0.3 65 65 S 3 6 30.15 1021 10 16 N/A
7:15 pm 19:15 Clear 43 5.9 31 -0.6 63 63 S 6 9 30.15 1021 10 16 N/A
7:35 pm 19:35 Clear 41 5.2 32 undefined 69 69 S 3 6 30.15 1021 10 16 N/A
7:55 pm 19:55 Clear 41 4.8 32 -0.1 71 71 S 5 7 30.15 1021 10 16 N/A
8:15 pm 20:15 Clear 38 3.2 31 -0.4 78 78 S 6 9 30.18 1022 10 16 N/A
8:35 pm 20:35 Clear 38 3.6 32 -0.2 76 76 S 7 11 30.18 1022 10 16 N/A
8:55 pm 20:55 Clear 37 2.7 31 -0.6 79 79 N N/A 30.18 1022 10 16 N/A
9:15 pm 21:15 Clear 39 3.8 31 -0.5 74 74 S 3 6 30.18 1022 10 16 N/A
9:35 pm 21:35 Clear 38 3.5 31 -0.7 74 74 N N/A 30.18 1022 10 16 N/A
9:55 pm 21:55 Clear 34 0.9 29 -1.4 85 85 N N/A 30.21 1023 10 16 N/A
10:15 pm 22:15 Clear 33 0.5 29 -1.5 87 87 N N/A 30.21 1023 10 16 N/A
10:35 pm 22:35 Clear 31 -0.3 28 -2.5 85 85 N N/A 30.21 1023 10 16 N/A
10:55 pm 22:55 Clear 30 -1 27 -2.6 89 89 N N/A 30.21 1023 10 16 N/A
11:15 pm 23:15 Clear 29 -1.4 27 -3 89 89 NE 3 6 30.21 1023 10 16 N/A
11:35 pm 23:35 Clear 30 -1.2 27 -2.6 90 90 N N/A 30.21 1023 10 16 N/A
11:55 pm 23:55 Clear 30 -1 28 -2.3 91 91 N N/A 30.21 1023 10 16 N/A

Powered by AerisWeather